Temp_Advection
nan nan nan nan nan nan nan nan nan nan nan nan nan nan nan nan nan nan nan nan nan nan nan nan nan nan nan nan nan nan nan nan nan nan nan nan nan nan nan nan nan nan
nan -0 -0 -0 -0 -0 -0 -0 -1 -1 -0 -0 -0 0 0 0 -0 -0 -0 -0 -0 -0 -0 -0 -0 -0 -0 -0 -0 -0 -0 -0 -0 -0 -0 -0 -0 -0 -0 -0 -0 nan
nan -0 -0 -0 -0 -0 -0 -0 -0 -0 -0 0 0 0 0 0 0 0 0 -0 -0 -0 -0 -0 -0 -0 -0 -0 -0 -0 -0 -0 -0 -0 -0 -0 -0 -0 -0 -0 -0 nan
nan -1 -1 -1 -0 -0 -0 -0 -0 -0 -0 0 -0 -0 -0 0 0 0 0 0 -0 0 0 0 -0 -0 0 -0 -0 -0 -0 -0 -0 -0 -0 -0 -0 -0 -0 -0 0 nan
nan -0 -0 -0 -0 -0 0 -0 -0 -0 -0 -0 -0 -0 -0 0 0 0 0 0 -0 0 0 0 -0 0 0 -0 -0 -0 -0 -0 -0 -0 -0 -0 -0 -0 -0 -0 0 nan
nan -0 -0 -0 -0 -0 -0 -1 -1 -0 -0 -0 -0 -0 -0 0 0 0 0 0 0 -0 -0 -0 0 0 0 -0 -0 -0 -0 -0 -0 -0 -0 -0 -0 -0 -0 -0 -0 nan
nan -0 -0 -0 -0 -0 -1 -1 -0 -0 -0 -0 -0 -0 0 0 0 0 0 0 0 -0 -0 -0 -0 0 0 0 -0 -0 -0 0 -0 -0 -0 -0 -0 -0 -0 -0 -0 nan
nan -0 -0 -0 -0 -0 -1 -1 -1 -1 -0 -0 -0 -0 -0 0 0 0 0 0 -0 -0 -0 -0 -0 0 0 -0 -0 -0 -0 -0 -0 -0 -0 -0 -0 -0 -0 0 -0 nan
nan -0 0 0 -0 -0 -1 -1 -1 -0 -0 -0 -0 -0 -0 -0 0 1 0 0 -0 -0 -0 -0 -0 -0 -0 -0 -0 -0 -0 0 -0 -0 -0 -0 -0 -0 0 0 -0 nan
nan -0 0 -0 -0 -0 -0 -0 -0 0 0 0 0 0 0 0 0 1 1 0 0 -0 -1 -1 -0 -0 -0 -0 -0 -0 -0 0 -0 0 0 -0 -0 0 0 0 -0 nan
nan 0 -1 -1 -0 -0 -0 0 0 1 1 0 1 1 1 1 1 1 1 0 -0 -0 -1 -1 -0 -0 -0 -0 -0 -0 -0 0 0 0 0 0 -0 0 0 0 -0 nan
nan -0 -2 -2 -1 -1 0 1 1 1 1 1 1 1 1 1 1 1 0 -0 -0 -0 -0 -1 -0 -0 -0 -0 0 0 0 0 0 0 0 0 -0 -0 0 -0 -0 nan
nan -1 -2 -1 -1 -0 1 1 1 1 0 0 1 1 1 1 1 0 -0 -0 -0 0 -0 -0 0 0 -0 0 0 0 0 0 0 0 0 0 -0 -0 0 -0 -0 nan
nan -1 -1 -1 -0 0 1 1 1 1 0 1 1 1 1 1 0 0 -0 -0 0 0 0 1 1 -0 -0 -0 0 0 0 0 0 -0 -0 0 0 0 0 -0 -0 nan
nan -0 0 0 -0 -0 -0 0 1 1 1 1 1 0 1 1 0 0 0 0 0 0 1 1 1 -0 -1 -1 -0 1 0 0 -0 -0 -0 -0 0 0 0 -0 -0 nan
nan 0 0 -0 -1 -2 -1 0 1 1 1 1 -0 0 1 1 1 0 0 0 -0 0 1 0 0 -1 -1 -1 -0 0 1 0 0 -0 -0 0 0 0 -0 -0 -0 nan
nan 0 -0 -1 -2 -1 -1 0 1 1 1 0 -0 0 1 1 1 0 0 -0 -0 0 0 0 -0 -1 -1 -1 -0 0 1 0 0 0 0 0 0 -0 -0 -0 -0 nan
nan -0 -1 -1 -1 -1 -0 0 1 1 0 0 -0 -0 0 1 0 0 0 -0 -0 0 0 -0 -0 -1 -1 -1 -0 0 0 0 0 0 0 0 -0 -0 -0 -0 -0 nan
nan -0 -1 -1 -1 -1 -0 1 1 0 -0 -0 -0 0 1 0 0 0 0 -0 -0 -0 -0 -0 -1 -1 -1 -1 -1 0 0 0 0 0 0 0 -0 -0 0 -0 -0 nan
nan -0 -0 -1 -0 -0 -0 0 0 -0 -0 0 0 0 0 -0 0 0 -0 -0 -0 -0 -0 -0 -1 -1 -0 -0 -0 -0 -0 0 0 0 0 0 0 -0 0 0 -0 nan
nan -0 -0 -0 -0 -0 -0 -0 -0 -0 0 0 0 0 -0 -0 0 -0 -0 -0 -0 -0 -0 -0 -1 -1 -0 -0 -0 -1 -0 0 0 0 0 0 1 0 0 -0 -0 nan
nan -0 -0 -0 -0 -0 -1 -0 -0 -0 0 -0 -0 -0 -0 0 0 -0 -0 -0 -0 -0 -0 -0 -0 -0 -0 -0 -1 -1 0 1 1 0 0 0 0 0 0 -0 -0 nan
nan -0 -0 0 -0 -1 -1 -1 -0 -0 -0 -0 0 -0 -0 0 -0 -0 0 -0 -0 0 -0 -0 -0 -0 -0 -0 -0 -0 0 0 0 0 -0 0 0 1 0 0 0 nan
nan -0 -0 -0 -1 -1 -0 -0 -0 -0 -0 -0 -0 -0 -0 0 -0 0 0 -0 0 -0 -0 0 -0 -0 0 -0 -0 -0 -0 -0 0 0 0 0 1 1 1 0 -0 nan
nan -0 -0 -1 -1 -0 0 0 0 -0 -0 0 -0 -0 0 0 0 0 0 -0 0 -0 0 0 -0 -0 0 -0 -0 0 -0 -0 0 1 0 -0 0 1 0 -0 -0 nan
nan nan nan nan nan nan nan nan nan nan nan nan nan nan nan nan nan nan nan nan nan nan nan nan nan nan nan nan nan nan nan nan nan nan nan nan nan nan nan nan nan nan
Wind_Speed
40 40 38 35 32 31 29 28 27 25 23 21 19 16 15 14 13 13 12 11 12 12 12 12 11 11 10 11 11 12 12 10 8 8 8 8 7 7 7 8 7 6
41 41 40 37 35 33 31 29 28 27 25 23 21 19 17 16 15 14 13 11 11 12 13 13 12 12 11 11 11 12 12 11 9 9 8 8 8 7 7 8 8 6
43 42 41 40 38 35 33 31 29 28 27 25 23 22 20 19 18 16 15 14 12 12 13 13 13 13 13 13 12 12 12 11 10 10 9 8 8 8 7 7 8 6
45 44 43 42 40 38 36 34 32 31 29 27 26 24 22 21 20 19 17 16 15 14 14 14 14 13 13 14 14 13 13 12 11 11 11 10 9 9 9 8 7 7
45 45 44 43 42 40 39 37 35 33 32 30 28 26 25 23 23 21 20 19 18 17 16 16 15 15 14 15 15 15 14 13 13 13 13 12 11 10 10 9 9 9
46 45 45 44 44 43 41 40 38 36 35 33 31 29 27 25 25 23 22 20 20 19 18 18 18 17 16 16 16 16 15 14 14 14 14 13 13 12 11 10 10 10
48 46 46 45 45 44 43 42 40 39 37 35 33 31 29 28 27 26 24 23 21 21 20 20 20 20 19 18 17 17 16 16 15 15 15 15 14 13 12 12 12 11
50 48 47 46 46 45 45 43 42 40 39 37 36 34 32 30 29 28 27 26 25 24 23 21 21 21 21 20 19 18 18 17 17 16 16 15 15 15 14 13 13 13
51 50 48 47 47 47 46 44 43 41 40 39 38 36 34 33 31 30 29 28 28 27 26 24 23 22 22 22 22 21 20 19 18 17 17 16 15 14 14 14 14 14
51 51 50 49 49 49 48 46 44 42 41 40 39 38 37 35 33 31 30 30 30 30 29 27 26 24 23 23 22 21 21 21 20 18 18 17 16 14 14 14 15 15
51 52 51 50 50 50 49 47 46 44 43 42 41 40 38 37 35 33 32 32 32 32 31 30 28 26 25 24 23 22 21 22 22 21 19 19 18 16 15 15 15 15
51 52 53 52 51 50 49 48 47 46 45 43 42 41 40 39 37 35 34 33 33 33 33 31 29 28 27 26 25 24 22 22 22 22 22 21 20 19 17 16 15 15
51 53 53 53 51 50 49 49 48 46 45 44 43 42 41 40 39 37 36 35 34 34 34 33 31 30 29 27 26 26 25 24 23 23 23 23 22 21 20 18 17 16
50 52 53 53 52 50 49 49 49 47 46 45 44 43 42 42 40 39 37 36 35 35 35 34 33 32 31 29 28 27 26 26 25 24 23 23 23 23 22 21 19 18
48 50 52 52 51 51 50 49 49 48 46 45 44 43 42 42 41 40 39 38 36 36 35 35 35 34 33 31 29 28 27 27 27 26 25 24 23 23 23 22 21 19
47 49 50 51 52 51 50 50 49 48 47 46 45 44 42 42 41 41 40 39 38 37 36 36 36 36 34 32 30 29 28 28 28 27 26 25 25 24 24 23 22 21
45 47 49 50 52 52 51 50 49 48 47 46 46 44 42 41 41 41 41 41 40 39 37 37 37 36 35 33 31 30 29 28 28 28 28 27 27 26 25 24 23 22
45 46 49 50 51 52 51 50 49 48 48 47 46 45 43 41 40 40 41 41 40 39 38 37 37 36 35 33 31 30 29 28 28 28 29 29 29 28 28 26 25 24
46 46 48 50 51 52 51 50 50 49 49 48 47 46 43 42 40 40 41 42 41 40 39 38 37 36 35 34 32 31 29 28 28 28 29 29 30 30 30 29 28 27
47 48 49 50 51 51 51 51 51 50 50 49 48 46 45 44 42 40 40 41 41 40 39 38 36 35 34 33 32 31 29 28 28 28 28 29 30 30 31 31 30 28
49 49 49 50 50 50 51 51 51 51 51 50 48 48 47 46 44 42 41 41 41 41 39 38 37 35 33 32 31 29 28 28 28 28 28 29 29 30 31 31 30 30
51 50 50 50 50 50 50 52 52 52 51 50 49 48 48 47 46 44 43 41 41 41 40 39 38 36 34 32 29 27 26 27 29 29 29 29 29 29 30 31 30 30
51 51 51 50 50 51 51 52 52 52 52 51 49 48 48 48 47 45 44 42 41 41 42 40 39 37 35 33 30 28 26 27 28 29 29 29 29 28 29 30 31 31
53 52 51 50 51 52 52 52 52 51 52 51 50 49 48 48 47 46 45 44 42 42 42 42 40 38 36 34 32 30 29 29 29 29 29 29 29 28 29 30 31 32
54 52 52 51 51 52 52 52 51 51 51 51 51 49 47 46 45 45 45 44 44 43 42 43 42 40 38 36 34 33 32 31 30 30 30 30 29 29 29 30 31 32
54 53 52 52 51 51 51 51 50 50 49 50 51 49 47 45 44 44 44 44 44 43 43 43 43 43 41 39 36 34 33 33 32 32 32 32 31 30 30 30 30 31
Wind_Direction
206 204 206 209 208 205 203 203 204 207 209 210 213 210 203 203 205 206 210 209 209 213 213 208 205 204 205 205 201 199 205 214 216 207 198 197 197 199 196 176 166 180
210 209 209 211 212 213 212 211 210 212 215 216 218 218 215 214 215 216 218 217 212 212 217 218 213 210 209 211 211 207 212 219 221 221 213 204 206 208 209 192 175 189
213 212 212 212 214 216 217 217 217 217 220 220 222 223 222 221 223 226 226 227 224 215 216 222 222 219 216 216 217 213 215 219 217 222 225 218 213 213 218 212 194 197
215 215 215 215 217 218 220 221 222 223 223 224 225 226 226 226 226 230 231 231 232 226 220 221 224 226 224 221 223 220 218 221 219 220 226 225 221 217 218 224 214 205
217 217 217 218 218 219 221 222 224 226 226 227 229 230 230 229 227 229 231 231 232 232 228 224 224 228 228 226 228 227 225 224 223 223 225 226 226 224 221 224 225 218
219 219 219 220 220 221 222 224 226 227 229 229 230 231 232 230 229 229 231 232 233 234 232 229 226 227 230 229 230 232 232 230 228 226 226 226 226 228 229 228 230 229
219 220 221 221 222 223 224 225 227 228 230 231 231 232 231 230 229 230 233 235 236 238 238 233 228 227 230 232 232 233 234 234 234 231 227 227 228 229 230 230 232 233
220 220 221 222 223 225 226 227 227 228 229 231 232 232 232 231 229 229 231 235 238 241 242 240 233 229 230 233 235 235 235 235 236 235 234 231 229 230 231 231 233 238
220 220 222 223 224 225 226 227 227 228 229 230 232 232 232 233 232 230 230 233 237 240 242 244 241 234 230 232 236 238 237 237 237 238 241 239 236 232 230 231 234 241
220 221 221 222 223 225 226 227 227 228 229 230 231 232 233 234 234 233 232 233 235 237 240 243 244 240 234 232 235 238 238 238 238 238 240 243 244 239 233 231 233 239
220 220 220 221 223 224 226 226 227 228 229 230 230 231 232 233 234 234 233 232 234 236 238 241 242 243 240 236 235 236 237 237 237 237 237 240 244 245 242 236 235 238
220 219 220 221 222 224 225 225 225 226 228 229 229 230 231 231 232 232 232 232 233 235 237 239 239 240 241 239 237 236 237 237 236 236 237 239 242 245 246 244 241 240
220 220 220 221 222 223 223 223 223 224 225 227 228 229 229 229 229 230 231 232 233 234 235 237 237 238 239 239 238 237 237 238 238 237 237 239 243 245 247 248 247 246
219 220 220 220 221 222 222 222 222 223 223 226 227 228 227 227 227 229 230 231 232 233 234 235 236 236 236 236 237 237 238 239 240 241 240 240 242 244 247 249 250 251
219 220 220 219 219 220 221 221 221 221 222 223 225 227 227 227 226 227 229 230 231 232 233 234 234 234 234 235 237 238 238 239 241 242 242 243 242 243 244 246 249 251
219 219 219 218 218 220 221 221 220 220 220 221 223 226 227 226 224 224 226 228 230 231 231 231 232 233 233 235 237 239 239 240 241 242 244 245 246 246 246 246 247 248
218 218 218 218 218 219 220 220 219 218 218 219 222 224 226 225 222 221 223 226 229 231 231 230 231 232 233 235 236 239 240 240 242 244 245 246 247 248 250 251 251 251
219 218 218 218 218 219 219 219 218 217 218 218 219 222 224 224 221 219 221 224 227 229 231 231 231 232 233 234 236 237 239 240 242 244 245 246 247 249 251 253 255 256
220 219 218 219 219 219 219 219 217 216 217 217 218 220 222 222 222 219 219 221 225 228 230 231 233 233 234 235 235 236 237 238 240 243 244 245 247 249 251 252 254 256
221 220 220 219 219 219 218 218 217 216 216 216 216 218 219 221 221 219 218 219 223 227 230 232 233 234 235 235 236 236 236 237 239 242 244 245 245 247 249 251 253 254
221 222 221 220 219 218 218 218 218 217 216 215 215 215 218 220 221 220 219 219 221 225 228 231 234 236 237 236 237 237 237 236 238 240 243 244 245 245 247 249 252 253
221 222 222 220 219 218 218 218 218 217 215 214 214 215 217 219 220 221 221 220 220 222 226 230 233 236 238 237 238 238 237 236 237 239 241 244 245 244 244 247 249 251
220 221 221 220 219 218 219 219 218 218 216 214 213 214 216 218 219 220 221 221 220 221 224 228 231 234 237 238 238 239 238 237 237 238 240 243 244 244 244 245 247 249
220 220 220 221 220 220 220 220 219 218 217 214 214 214 215 217 219 219 221 222 222 222 222 225 228 231 235 237 238 239 239 239 240 240 242 243 244 244 244 244 245 247
220 220 220 221 222 222 221 220 220 219 218 216 215 215 215 217 218 219 220 221 223 224 224 224 225 228 231 234 236 237 238 240 241 242 243 245 246 245 244 243 244 246
220 221 221 222 223 223 221 220 220 219 218 217 216 215 215 216 218 219 220 221 222 224 225 226 226 226 228 230 232 234 236 238 239 241 243 246 247 247 246 246 246 246
Height
1562 1564 1565 1567 1569 1571 1573 1574 1576 1577 1579 1580 1581 1583 1584 1586 1587 1588 1589 1590 1591 1592 1593 1594 1595 1596 1597 1598 1599 1600 1600 1601 1601 1602 1602 1603 1603 1604 1605 1605 1605 1606
1558 1561 1563 1565 1567 1569 1571 1573 1574 1575 1577 1578 1580 1581 1583 1584 1585 1586 1587 1589 1590 1591 1592 1593 1594 1595 1596 1597 1598 1599 1599 1600 1600 1601 1601 1602 1602 1603 1604 1604 1604 1605
1555 1558 1560 1562 1564 1566 1568 1570 1572 1574 1575 1577 1578 1580 1581 1583 1584 1585 1586 1587 1588 1589 1590 1591 1592 1593 1594 1595 1596 1597 1598 1599 1599 1600 1600 1601 1601 1602 1603 1603 1603 1604
1552 1554 1557 1559 1561 1564 1566 1568 1569 1571 1573 1574 1576 1578 1579 1581 1582 1583 1584 1585 1586 1587 1589 1590 1591 1592 1593 1594 1595 1596 1597 1597 1598 1599 1599 1600 1600 1601 1601 1602 1602 1603
1548 1551 1553 1556 1559 1561 1563 1565 1566 1568 1570 1572 1574 1575 1577 1578 1579 1581 1582 1583 1584 1585 1586 1588 1589 1590 1591 1592 1593 1594 1595 1596 1597 1597 1598 1598 1599 1599 1600 1601 1601 1601
1544 1547 1550 1553 1555 1558 1560 1561 1563 1565 1567 1569 1571 1573 1574 1575 1577 1578 1579 1581 1582 1583 1584 1585 1587 1588 1589 1590 1591 1592 1593 1594 1595 1596 1596 1597 1598 1598 1599 1599 1600 1600
1540 1543 1546 1549 1552 1555 1556 1558 1560 1562 1564 1566 1568 1570 1572 1573 1574 1575 1577 1578 1579 1581 1582 1583 1584 1585 1586 1588 1589 1590 1591 1592 1593 1594 1595 1595 1596 1596 1597 1598 1598 1599
1536 1539 1542 1545 1548 1551 1553 1555 1557 1559 1561 1563 1565 1566 1568 1570 1572 1573 1574 1575 1577 1578 1579 1580 1582 1583 1584 1585 1586 1588 1588 1589 1590 1591 1592 1593 1594 1595 1595 1596 1597 1597
1532 1535 1538 1541 1544 1546 1548 1551 1553 1556 1558 1560 1561 1563 1565 1567 1569 1570 1572 1573 1574 1575 1576 1578 1579 1580 1582 1583 1584 1585 1586 1587 1588 1589 1590 1591 1592 1593 1594 1594 1595 1595
1528 1530 1533 1536 1538 1541 1544 1547 1550 1552 1555 1556 1558 1560 1562 1564 1566 1567 1569 1570 1571 1572 1573 1575 1576 1577 1579 1580 1581 1583 1584 1585 1586 1587 1588 1589 1590 1591 1592 1592 1593 1593
1523 1526 1528 1530 1533 1536 1539 1542 1546 1548 1551 1553 1555 1557 1558 1560 1562 1564 1566 1567 1568 1569 1570 1572 1573 1575 1576 1577 1579 1580 1581 1582 1584 1585 1586 1587 1588 1588 1589 1590 1591 1592
1518 1521 1523 1525 1528 1531 1535 1538 1541 1544 1546 1549 1551 1553 1555 1556 1558 1560 1562 1563 1564 1566 1567 1568 1570 1572 1573 1574 1576 1577 1578 1580 1581 1582 1583 1584 1585 1586 1587 1588 1589 1590
1513 1515 1518 1521 1524 1527 1530 1534 1537 1539 1542 1544 1547 1549 1551 1553 1554 1556 1558 1559 1561 1562 1564 1565 1567 1568 1570 1571 1572 1574 1575 1577 1578 1579 1581 1582 1583 1584 1585 1586 1586 1587
1508 1511 1514 1517 1520 1523 1527 1530 1532 1535 1537 1540 1542 1544 1546 1548 1550 1552 1554 1556 1557 1559 1560 1562 1563 1565 1566 1568 1569 1571 1572 1573 1575 1576 1578 1579 1580 1581 1582 1583 1584 1585
1504 1508 1511 1514 1517 1520 1523 1525 1528 1531 1533 1536 1538 1540 1542 1545 1547 1549 1551 1552 1554 1555 1557 1559 1560 1561 1563 1564 1566 1567 1569 1570 1571 1573 1574 1576 1577 1578 1579 1580 1581 1582
1502 1505 1508 1511 1514 1516 1518 1521 1524 1527 1530 1532 1534 1536 1538 1541 1543 1545 1547 1549 1550 1552 1554 1555 1556 1557 1559 1561 1563 1564 1566 1567 1568 1570 1571 1572 1574 1575 1576 1578 1578 1579
1499 1502 1505 1507 1509 1512 1514 1517 1520 1523 1525 1528 1530 1532 1534 1537 1539 1541 1543 1545 1547 1548 1550 1551 1552 1554 1555 1558 1560 1561 1563 1564 1565 1567 1568 1569 1570 1572 1573 1574 1575 1576
1497 1499 1502 1504 1506 1508 1511 1513 1517 1519 1521 1524 1526 1528 1530 1533 1535 1537 1539 1541 1543 1544 1546 1547 1549 1550 1552 1554 1556 1558 1560 1561 1563 1564 1565 1566 1567 1568 1570 1571 1572 1573
1495 1497 1498 1500 1502 1504 1507 1510 1513 1515 1517 1519 1521 1524 1526 1529 1531 1533 1535 1537 1539 1541 1542 1544 1545 1547 1549 1551 1553 1555 1557 1558 1559 1561 1562 1563 1564 1565 1566 1568 1569 1570
1494 1494 1496 1497 1499 1502 1505 1507 1509 1511 1513 1515 1518 1520 1523 1524 1526 1529 1531 1533 1535 1537 1539 1540 1542 1543 1545 1547 1549 1551 1553 1555 1556 1557 1559 1560 1561 1562 1563 1564 1566 1567
1491 1491 1493 1495 1497 1500 1502 1503 1505 1507 1509 1512 1515 1517 1518 1520 1522 1525 1527 1530 1531 1533 1535 1536 1538 1540 1542 1544 1546 1548 1550 1552 1553 1554 1555 1556 1558 1559 1560 1561 1562 1564
1486 1488 1489 1492 1494 1497 1498 1499 1501 1503 1506 1509 1511 1513 1515 1517 1519 1521 1523 1526 1528 1530 1531 1533 1534 1536 1538 1540 1543 1544 1546 1548 1549 1551 1552 1553 1554 1555 1557 1558 1559 1560
1481 1483 1485 1488 1490 1492 1493 1495 1497 1500 1503 1506 1508 1510 1512 1513 1515 1517 1520 1522 1524 1526 1527 1529 1531 1533 1535 1537 1539 1541 1543 1544 1545 1547 1548 1549 1550 1552 1553 1554 1555 1556
1477 1479 1481 1483 1485 1486 1488 1491 1494 1497 1500 1502 1505 1507 1508 1510 1512 1514 1517 1518 1520 1522 1523 1525 1527 1529 1531 1533 1535 1537 1539 1540 1542 1543 1544 1545 1547 1548 1550 1551 1552 1553
1473 1474 1476 1478 1480 1482 1485 1488 1490 1493 1496 1499 1501 1503 1505 1508 1509 1511 1513 1515 1516 1518 1520 1522 1523 1525 1527 1529 1531 1533 1535 1536 1538 1539 1540 1541 1543 1544 1546 1547 1548 1549
1469 1470 1471 1473 1475 1478 1481 1485 1487 1490 1493 1496 1498 1500 1503 1505 1506 1508 1509 1511 1513 1515 1516 1518 1520 1521 1523 1525 1527 1529 1531 1532 1534 1535 1536 1537 1538 1540 1541 1542 1544 1545